www.pogodaiklimat.ru

Погода и климат >> Архив погоды >> Бангладеш >> Sitakundu


ПОГОДА в Sitakundu

  • Прогноз погоды в Sitakundu
  • Монитор погоды в Sitakundu
  • Климат города

АРХИВ ПОГОДЫ в Sitakundu

Время (UTC), дата Ветер
(напр.,м/с)
 
Видим.   Явления Облачность Т
(С)
Тd
(С)
f
(%)
Тe
(С)
Тes
(С)
Комфортность P
(гПа)
Po
(гПа)
Тmin
(С)
Tmax
(С)
R
(мм)
R24
(мм)
S
(см)
21 10.10 штиль 0 3000 м дождь 10/6 240 м
[Cb calv As op]
+24.5 +24.5 100 +34 +34 очень
душно
1010.6 1009.7
00 11.10 штиль 0 3000 м дождь 10/6 240 м
[Cb calv As op]
+24.0 +24.0 100 +33 +33 очень
душно
1010.7 1009.8 16
03 11.10 штиль 0 3000 м дождь 10/6 240 м
[Cb calv As op]
+25.0 +24.0 94 +34 +35 очень
душно
1011.0 1010.1 +23.0
06 11.10 штиль 0 2000 м сильный дождь 10/6 240 м
[Cb calv As op]
+24.0 +24.0 100 +33 +35 очень
душно
1012.0 1011.1 21
06 12.10 ЮВ 1 4000 м в посл. час дождь 10/6 300 м
[Cb calv As trans]
+25.0 +24.0 94 +34 +37 очень
душно
1011.6 1010.7 30
12 12.10 штиль 0 5000 м {дождь} 10/5 300 м
[Cb cap As trans]
+24.5 +24.0 97 +34 +34 очень
душно
1010.6 1009.7 +26.8 4
18 13.10 штиль 0 3000 м дождь 10/6 300 м
[Cb calv As op]
+24.5 +24.0 97 +34 +34 очень
душно
1010.4 1009.5 10
03 14.10 штиль 0 6000 м {дождь} 8/4 540 м
[Sc diur, vesp Ac trans]
+26.0 +24.0 89 +36 +40 очень
душно
1011.9 1011.0 +23.0 2
09 14.10 штиль 0 6000 м 8/5 300 м
[St As trans]
+29.5 +26.0 81 +44 +47 опасность
перегрева
1009.4 1008.5
12 14.10 штиль 0 5000 м мгла 8/4 540 м
[Sc diur, vesp Ac trans]
+27.5 +26.0 92 +41 +41 опасность
перегрева
1009.7 1008.8 +31.0
15 14.10 штиль 0 5000 м мгла ясно +24.5 +24.0 97 +34 +34 очень
душно
1011.1 1010.2
18 14.10 штиль 0 4000 м мгла ясно +24.0 +23.0 94 +32 +32 очень
душно
1011.5 1010.6
21 14.10 штиль 0 4000 м мгла ясно +24.0 +23.0 94 +32 +32 очень
душно
1011.4 1010.5
00 15.10 штиль 0 2500 м дымка {туман} ясно +23.5 +23.5 100 +32 +32 очень
душно
1011.2 1010.3
03 15.10 штиль 0 4000 м мгла ясно +30.0 +25.0 75 +43 +54 опасность
перегрева
1011.7 1010.8 +23.0
06 15.10 штиль 0 6000 м 3/3 540 м
[Sc diur, vesp]
+31.0 +23.0 62 +41 +56 опасность
перегрева
1013.1 1012.3
12 15.10 штиль 0 5000 м мгла ясно +26.0 +24.0 89 +36 +36 очень
душно
1011.1 1010.2 +33.0
15 15.10 штиль 0 4000 м мгла ясно +24.0 +23.0 94 +32 +32 очень
душно
1012.5 1011.6
18 15.10 штиль 0 4000 м мгла ясно +23.5 +23.0 97 +31 +31 очень
душно
1012.3 1011.4
03 16.10 штиль 0 5000 м мгла ясно +30.0 +23.0 66 +40 +50 очень
душно
1013.7 1012.9 +22.8
06 16.10 штиль 0 5000 м мгла ясно +30.0 +23.0 66 +40 +61 опасность
солнечного
удара
1013.7 1012.9 +22.8
09 16.10 штиль 0 7000 м ясно +32.0 +20.0 49 +38 +47 очень
душно
1010.7 1009.9
12 16.10 штиль 0 5000 м мгла ясно +26.0 +24.0 89 +36 +36 очень
душно
1010.7 1009.8 +32.2
15 16.10 штиль 0 4000 м мгла ясно +23.0 +22.0 94 +31 +31 очень
душно
1012.1 1011.2
18 16.10 штиль 0 4000 м мгла ясно +23.0 +22.0 94 +31 +31 очень
душно
1012.1 1011.2
00 17.10 штиль 0 2500 м дымка {туман} ясно +19.6 +19.6 100 +22 +22 комфорт 1010.6 1009.8
03 17.10 штиль 0 4000 м мгла ясно +28.0 +21.0 66 +35 +45 очень
душно
1013.2 1012.4 +19.2
06 17.10 штиль 0 7000 м 5/3 300 м
[Sc diur, vesp Ac trans]
+30.5 +21.0 57 +38 +50 очень
душно
1011.4 1010.6
09 17.10 штиль 0 7000 м 5/3 540 м
[Sc diur, vesp Ac trans]
+30.0 +22.0 62 +39 +44 очень
душно
1009.0 1008.1
12 17.10 штиль 0 5000 м мгла ясно +25.5 +24.0 91 +35 +35 очень
душно
1008.6 1007.7 +31.6
15 17.10 штиль 0 4000 м мгла ясно +21.5 +21.0 97 +27 +27 душно 1011.0 1010.1

 

Местоположение метеостанции Sitakundu (Бангладеш): широта 22.58 долгота 91.70 высота над уровнем моря 44 м.

В архиве по умолчанию представлена погода в Sitakundu за последнюю неделю. Архивные данные за месяц целиком и за предыдущие месяцы, начиная с января 2011 года, Вы можете получить, выбрав интересующий диапазон дат из раскрывающегося списка и нажав кнопку "Ввод!".


*Определитесь, кто Вы:
робот инопланетянин человек

Внимание! Время в таблицах - всемирное. Для получения местного времени необходимо прибавить поправку, которая в Sitakundu равна 6.5 ч.

Смотрите также архив погоды в соседних городах и на ближайших метеорологических станциях:

Погода в Sandwip (Бангладеш) (30 км)
Погода в Chittagong (Бангладеш) (37 км)
Погода в Rangamati (Бангладеш) (52 км)
Погода в Feni (Бангладеш) (58 км)
Погода в Hatia (Бангладеш) (64 км)
Погода в Maijdicourt (Бангладеш) (69 км)
Погода в Kutubdia (Бангладеш) (86 км)
Погода в Bhola (Бангладеш) (108 км)
Погода в Comilla (Бангладеш) (109 км)
Погода в Chandpur (Бангладеш) (128 км)

Пояснения к столбцам:

Ветер - указаны скорость ветра в м/с - средняя за 10 мин, порывы в срок и между сроками (в фигурных скобках) и направление, откуда дует ветер: С - северный, СВ - северо-восточный, В - восточный, ЮВ - юго-восточный, Ю - южный, ЮЗ - юго-западный, З - западный, СЗ - северо-западный.
Видимость - горизонтальная дальность видимости в метрах или километрах. При видимости от 1 до 10 км при отсутствии осадков обычно наблюдается дымка, при ухудшении видимости до 1 км и менее - туман. В сухую погоду видимость может ухудшаться дымом, пылью или мглою.
Явления - указаны атмосферные явления, наблюдавшиеся в срок или в последний час перед сроком; фигурными скобками обозначены явления, наблюдавшиеся между сроками (за 1-3 часа до срока); квадратными скобками обозначены град или гололедные отложения с указанием их диаметра в мм.
Облачность - указаны через наклонную черту общая и нижняя облачность в баллах и высота нижней границы облаков в метрах; квадратными скобками обозначены формы облаков: Ci - перистые, Cs - перисто-слоистые, Cc - перисто-кучевые, Ac - высококучевые, As - высокослоистые, Sc - слоисто-кучевые, Ns - слоисто-дождевые, Cu - кучевые, Cb - кучево-дождевые. Подробнее классификацию облаков см. в Атласе облаков (PDF).
T - Температура воздуха - температура, измеренная на высоте 2 м над землей.
Td - Температура точки росы - температура, при понижении до которой содержащийся в воздухе водяной пар достигнет насыщения.
f - Относительная влажность воздуха - влажноcть воздуха, измеренная на высоте 2 м над землей.
Te - Эффективная температура - температура, которую ощущает одетый по сезону человек в тени. Характеристика душности погоды. При расчете учитывается влияние влажности воздуха и скорости ветра на теплоощущения человека.
Tes - Эффективная температура на солнце - температура, которую ощущает человек, с поправкой на солнечный нагрев. Характеристика знойности погоды. Зависит от высоты солнца над горизонтом, облачности и скорости ветра. Ночью, в пасмурную погоду, а также при ветре 12 м/с и более поправка равна нулю.
P - Атмосферное давление - приведенное к уровню моря атмосферное давление.
Po - Атмосферное давление - измеренное на уровне метеостанции атмосферное давление.
Tmin - Минимальная температура - минимум температуры воздуха на высоте 2 м над землей.
Tmax - Максимальная температура - максимум температуры воздуха на высоте 2 м над землей.
R - Количество осадков - Количество выпавших осадков за период времени, мм. При наведении курсора мыши на число - период времени, за который выпало указанное количество осадков.
R24 - Количество осадков - Количество выпавших осадков за 24 часа, мм.
S - Снежный покров - Высота снежного покрова, см. При наведении курсора мыши на число - состояние снежного покрова и степень покрытия местности в баллах.